This demonstration page uses our WeatherBlox Daily Observations layout. Learn more.

Left ArrowRight Arrow

42.03336, -87.8834

Hourly Observations for January 27, 2022

Temp ( °F °C ) Dew Point ( °F °C ) Humidity (%) Winds ( mph kmh ) Pressure ( in mb ) Visibility ( mi km ) Precip ( " mm )
12:51 am 00:51 Cloudy 16 -8.9 2 -16.7 54 54 SSW 15 24 30.19 1022 10 16 0.00 0.00
1:51 am 01:51 Cloudy 18 -7.8 4 -15.6 54 54 SSW 15 24 30.16 1021 10 16 0.00 0.00
2:51 am 02:51 Cloudy 19 -7.2 5 -15 54 54 SSW 17 28 30.14 1021 10 16 0.00 0.00
3:51 am 03:51 Cloudy 19 -7.2 6 -14.4 57 57 SSW 16 26 30.11 1020 10 16 0.00 0.00
4:51 am 04:51 Cloudy 20 -6.7 7 -13.9 57 57 SSW 12 19 30.11 1020 10 16 0.00 0.00
5:51 am 05:51 Mostly Cloudy 22 -5.6 8 -13.3 55 55 SSW 12 19 30.09 1019 10 16 0.00 0.00
6:51 am 06:51 Cloudy 23 -5 9 -12.8 55 55 SW 13 20 30.10 1019 10 16 0.00 0.00
7:51 am 07:51 Cloudy 24 -4.4 10 -12.2 55 55 SW 15 24 30.10 1019 10 16 0.00 0.00
8:51 am 08:51 Cloudy 25 -3.9 11 -11.7 55 55 SW 14 22 30.09 1019 10 16 0.00 0.00
9:51 am 09:51 Cloudy 27 -2.8 13 -10.6 55 55 WSW 16 26 30.10 1019 10 16 0.00 0.00
10:51 am 10:51 Cloudy 28 -2.2 15 -9.4 58 58 WSW 16 26 30.09 1019 10 16 0.00 0.00
11:51 am 11:51 Cloudy 28 -2.2 16 -8.9 60 60 WSW 15 24 30.09 1019 10 16 0.00 0.00
12:16 pm 12:16 Cloudy 29 -1.7 17 -8.3 61 61 WSW 13 20 30.10 1019 10 16 0.00 0.00
12:27 pm 12:27 Cloudy 29 -1.7 17 -8.3 61 61 WSW 16 26 30.10 1019 10 16 0.00 0.00
12:36 pm 12:36 Cloudy 29 -1.7 18 -7.8 63 63 W 14 22 30.10 1019 10 16 0.00 0.00
12:51 pm 12:51 Cloudy 30 -1.1 18 -7.8 61 61 W 13 20 30.09 1019 10 16 0.00 0.00
1:51 pm 13:51 Cloudy 30 -1.1 20 -6.7 66 66 WSW 8 13 30.08 1019 10 16 0.00 0.00
2:51 pm 14:51 Mostly Cloudy 31 -0.6 20 -6.7 64 64 W 9 15 30.10 1019 10 16 0.00 0.00
3:51 pm 15:51 Mostly Cloudy 32 0 21 -6.1 64 64 WSW 10 17 30.13 1020 10 16 0.00 0.00
4:51 pm 16:51 Mostly Cloudy 30 -1.1 21 -6.1 69 69 WSW 8 13 30.15 1021 10 16 0.00 0.00
5:51 pm 17:51 Mostly Cloudy 29 -1.7 21 -6.1 72 72 WSW 8 13 30.17 1022 10 16 0.00 0.00
6:51 pm 18:51 Cloudy 29 -1.7 22 -5.6 75 75 W 6 9 30.19 1023 10 16 0.00 0.00
7:04 pm 19:04 Cloudy with Light Snow 29 -1.7 22 -5.6 75 75 WNW 7 11 30.22 1023 10 16 0.00 0.00
7:51 pm 19:51 Cloudy with Light Snow 29 -1.7 22 -5.6 75 75 NW 6 9 30.21 1023 10 16 0.00 0.00
8:51 pm 20:51 Cloudy with Light Snow 28 -2.2 19 -7.2 69 69 NNE 16 26 30.22 1023 10 16 0.00 0.00
9:21 pm 21:21 Cloudy 28 -2.2 19 -7.2 69 69 NNE 10 17 30.24 1024 10 16 0.00 0.00
9:51 pm 21:51 Cloudy 28 -2.2 18 -7.8 66 66 N 12 19 30.22 1024 10 16 0.00 0.00
10:10 pm 22:10 Cloudy with Light Snow 28 -2.2 18 -7.8 66 66 N 12 19 30.24 1024 10 16 0.00 0.00
10:51 pm 22:51 Cloudy with Light Snow 27 -2.8 16 -8.9 63 63 N 13 20 30.23 1024 10 16 0.00 0.00
11:51 pm 23:51 Cloudy with Light Snow 26 -3.3 18 -7.8 71 71 N 14 22 30.24 1024 9 14 0.00 0.00

Powered by AerisWeather